Home > Time Zones > World Clock > Weather > Iran > Tabriz > Past weeks

Flag for Iran Weather past 2 weeks in Tabriz, Iran

Now
72 °F

Broken clouds.


Feels Like: 76 °F
Forecast: 54 / 84 °F
Wind: 22 mph from West

Location: Tabriz Airport

Current Time: May 28, 2015 at 3:40:27 PM

Latest Report: May 28, 2015 at 2:30 PM


Visibility: 4 mi

Pressure: 30.01 "Hg

Humidity: 27%

Dew point: 36 °F

Location of TabrizLocation

Historic Weather in Tabriz — Graph

°F

Tabriz temperature yesterday

Maximum temperature yesterday: 77 °F (at 4:00 PM)
Minimum temperature yesterday: 55 °F (at 5:50 AM)
Average temperature yesterday: 67 °F

Past Weeks' High & Low Weather Summary

 TemperatureHumidityPressure
High84 °F (May 20, 4:30 PM)93% (May 15, 6:30 AM)30.24 "Hg (May 15, 6:30 AM)
Low45 °F (May 15, 6:30 AM)15% (May 20, 1:00 PM)29.21 "Hg (May 16, 6:00 AM)
Average65 °F47%30.06 "Hg
* Reported May 13 2:30 PM — May 28 2:30 PM, Tabriz, Weather by CustomWeather, © 2015

Note: Actual official high and low records may vary slightly from our data, if they occured in-between our weather recording intervals... More about our weather records

Advertising

Tabriz weather history for previous 24 hours

 ConditionsComfort  
Time TempWeatherWind HumidityBarometerVisibility
2:30 PM
Thu, May 28
72 °FBroken clouds.22 mph27%30.01 "Hg4 mi
2:00 PM72 °FBroken clouds.22 mph31%30.01 "Hg4 mi
1:30 PM70 °FBroken clouds.26 mph38%30.04 "Hg3 mi
1:00 PM73 °FBroken clouds.16 mph33%30.04 "Hg4 mi
12:30 PM73 °FBroken clouds.18 mph31%30.01 "Hg4 mi
12:00 PM77 °FPartly sunny.18 mph28%30.01 "Hg4 mi
11:30 AM73 °FPartly sunny.9 mph31%30.01 "Hg4 mi
11:00 AM72 °FPartly sunny.14 mph36%30.01 "Hg4 mi
10:30 AM70 °FPartly sunny.9 mph40%30.01 "Hg4 mi
10:00 AM68 °FBroken clouds.5 mph43%30.04 "Hg4 mi
9:30 AM66 °FBroken clouds.2 mph49%30.04 "Hg4 mi
9:00 AM66 °FScattered clouds.No wind46%30.04 "Hg4 mi
8:30 AM63 °FScattered clouds.5 mph56%30.04 "Hg4 mi
8:00 AM61 °FScattered clouds.5 mph59%30.01 "Hg4 mi
7:30 AM59 °FPassing clouds.5 mph59%30.01 "Hg5 mi
7:00 AM57 °FPassing clouds.5 mph63%30.01 "Hg5 mi
6:30 AM57 °FPassing clouds.2 mph59%30.01 "Hg5 mi
6:00 AM55 °FPassing clouds.2 mph67%30.01 "HgN/A
5:30 AM57 °FPassing clouds.5 mph59%30.01 "HgN/A
5:00 AM57 °FPassing clouds.5 mph59%30.01 "HgN/A
4:30 AM55 °FPassing clouds.5 mph67%30.01 "HgN/A
4:00 AM55 °FPassing clouds.5 mph67%30.01 "HgN/A
3:30 AM57 °FPassing clouds.5 mph63%29.98 "HgN/A
3:00 AM59 °FPassing clouds.5 mph59%29.98 "HgN/A
2:30 AM59 °FPassing clouds.No wind59%30.01 "HgN/A
2:00 AM59 °FPassing clouds.2 mph63%30.01 "Hg6 mi
1:30 AM59 °FPassing clouds.2 mph63%30.04 "Hg5 mi
1:00 AM61 °FPassing clouds.2 mph59%30.04 "Hg5 mi
12:30 AM64 °FPassing clouds.No wind49%30.04 "Hg5 mi
12:00 AM64 °FPassing clouds.No wind46%30.04 "Hg5 mi
11:30 PM
Wed, May 27
66 °FPassing clouds.No wind46%30.04 "Hg5 mi
11:00 PM68 °FPassing clouds.2 mph40%30.04 "Hg5 mi
10:30 PM68 °FPassing clouds.5 mph40%30.04 "Hg5 mi
10:00 PM68 °FBroken clouds.7 mph38%30.01 "Hg4 mi
9:30 PM68 °FBroken clouds.12 mph40%30.01 "Hg4 mi
9:00 PM70 °FPartly sunny.9 mph40%30.01 "Hg4 mi
8:30 PM72 °FPartly sunny.9 mph36%30.01 "Hg4 mi
8:00 PM73 °FPartly sunny.7 mph33%30.01 "Hg4 mi
7:30 PM75 °FPartly sunny.9 mph31%30.01 "Hg4 mi
7:00 PM75 °FPartly sunny.7 mph31%29.98 "Hg5 mi
6:30 PM77 °FPartly sunny.12 mph30%30.01 "Hg5 mi
6:00 PM75 °FPartly sunny.12 mph29%30.04 "Hg5 mi
5:30 PM75 °FPassing clouds.12 mph29%30.04 "Hg5 mi
4:30 PM77 °FPassing clouds.12 mph28%30.01 "HgN/A
4:00 PM77 °FPassing clouds.12 mph28%30.04 "HgN/A
3:30 PM75 °FPassing clouds.14 mph29%30.04 "HgN/A
Weather by CustomWeather, © 2015

See weather overviewHow to use our weather pages